| time (UTC) | temp F | wind direction | speed MPH | gust MPH | rain 1hr in | rain 24hr in | rain mn in | humidity % | barometer mb |
| 20260901210203 | 100 | 130 | 3.0 | 9.0 | 0.00 | 0.00 | 0.00 | 34 | 1012.5 |
| 20260901205924 | 100 | 122 | 4.0 | 9.0 | 0.00 | 0.00 | 0.00 | 33 | 1012.5 |
| 20260901205156 | 100 | 213 | 2.0 | 9.0 | 0.00 | 0.00 | 0.00 | 33 | 1012.5 |
| 20260901204632 | 101 | 134 | 1.0 | 5.0 | 0.00 | 0.00 | 0.00 | 33 | 1012.6 |
| 20260901204105 | 100 | 123 | 0.0 | 3.0 | 0.00 | 0.00 | 0.00 | 34 | 1012.7 |
| 20260901203823 | 100 | 113 | 1.0 | 5.0 | 0.00 | 0.00 | 0.00 | 33 | 1012.7 |
| 20260901203058 | 101 | 350 | 1.0 | 5.0 | 0.00 | 0.00 | 0.00 | 32 | 1012.8 |
| 20260901202529 | 100 | 124 | 1.0 | 5.0 | 0.00 | 0.00 | 0.00 | 34 | 1012.8 |
| 20260901202006 | 101 | 139 | 1.0 | 5.0 | 0.00 | 0.00 | 0.00 | 33 | 1012.9 |
| 20260901201501 | 101 | 321 | 1.0 | 5.0 | 0.00 | 0.00 | 0.00 | 33 | 1013.0 |
| 20260901200958 | 101 | 340 | 1.0 | 5.0 | 0.00 | 0.00 | 0.00 | 33 | 1013.0 |
| 20260901200453 | 100 | 228 | 2.0 | 7.0 | 0.00 | 0.00 | 0.00 | 35 | 1013.1 |
| 20260901200212 | 101 | 110 | 2.0 | 7.0 | 0.00 | 0.00 | 0.00 | 34 | 1013.1 |
| 20260901195451 | 100 | 120 | 1.0 | 5.0 | 0.00 | 0.00 | 0.00 | 36 | 1013.2 |
| 20260901194924 | 100 | 136 | 0.0 | 5.0 | 0.00 | 0.00 | 0.00 | 35 | 1013.2 |
| 20260901194644 | 100 | 142 | 0.0 | 4.0 | 0.00 | 0.00 | 0.00 | 36 | 1013.3 |
| 20260901193920 | 100 | 85 | 2.0 | 9.0 | 0.00 | 0.00 | 0.00 | 35 | 1013.4 |
| 20260901193349 | 99 | 121 | 2.0 | 9.0 | 0.00 | 0.00 | 0.00 | 37 | 1013.5 |
| 20260901193048 | 99 | 191 | 1.0 | 8.0 | 0.00 | 0.00 | 0.00 | 36 | 1013.5 |
| 20260901192329 | 100 | 39 | 2.0 | 9.0 | 0.00 | 0.00 | 0.00 | 35 | 1013.6 |
| 20260901191828 | 101 | 127 | 1.0 | 9.0 | 0.00 | 0.00 | 0.00 | 36 | 1013.7 |
| 20260901191259 | 100 | 124 | 1.0 | 9.0 | 0.00 | 0.00 | 0.00 | 37 | 1013.8 |
| 20260901191002 | 100 | 145 | 2.0 | 9.0 | 0.00 | 0.00 | 0.00 | 36 | 1013.9 |
| 20260901190233 | 100 | 249 | 1.0 | 5.0 | 0.00 | 0.00 | 0.00 | 38 | 1014.0 |
| 20260901185723 | 99 | 109 | 1.0 | 5.0 | 0.00 | 0.00 | 0.00 | 37 | 1013.9 |
| 20260901185158 | 99 | 347 | 2.0 | 5.0 | 0.00 | 0.00 | 0.00 | 36 | 1014.1 |
| 20260901184628 | 99 | 133 | 2.0 | 7.0 | 0.00 | 0.00 | 0.00 | 37 | 1014.2 |
| 20260901184355 | 99 | 191 | 2.0 | 7.0 | 0.00 | 0.00 | 0.00 | 37 | 1014.3 |
| 20260901183623 | 99 | 165 | 1.0 | 5.0 | 0.00 | 0.00 | 0.00 | 39 | 1014.4 |
| 20260901183344 | 98 | 91 | 2.0 | 8.0 | 0.00 | 0.00 | 0.00 | 37 | 1014.5 |
| 20260901182556 | 97 | 110 | 3.0 | 8.0 | 0.00 | 0.00 | 0.00 | 39 | 1014.5 |
| 20260901182031 | 97 | 129 | 4.0 | 10.0 | 0.00 | 0.00 | 0.00 | 39 | 1014.8 |
| 20260901181508 | 97 | 288 | 4.0 | 10.0 | 0.00 | 0.00 | 0.00 | 39 | 1014.9 |
| 20260901180957 | 97 | 170 | 3.0 | 9.0 | 0.00 | 0.00 | 0.00 | 39 | 1014.9 |
| 20260901180433 | 98 | 107 | 1.0 | 9.0 | 0.00 | 0.00 | 0.00 | 38 | 1015.0 |
| 20260901175903 | 98 | 34 | 2.0 | 6.0 | 0.00 | 0.00 | 0.00 | 38 | 1015.1 |
| 20260901175402 | 98 | 135 | 2.0 | 6.0 | 0.00 | 0.00 | 0.00 | 37 | 1015.2 |
| 20260901174833 | 98 | 146 | 1.0 | 5.0 | 0.00 | 0.00 | 0.00 | 36 | 1015.3 |
| 20260901174331 | 98 | 56 | 1.0 | 5.0 | 0.00 | 0.00 | 0.00 | 38 | 1015.4 |
| 20260901173806 | 98 | 23 | 2.0 | 7.0 | 0.00 | 0.00 | 0.00 | 37 | 1015.5 |
| 20260901173237 | 98 | 148 | 2.0 | 7.0 | 0.00 | 0.00 | 0.00 | 36 | 1015.5 |
| 20260901172712 | 98 | 248 | 2.0 | 9.0 | 0.00 | 0.00 | 0.00 | 38 | 1015.6 |
| 20260901172209 | 98 | 146 | 2.0 | 9.0 | 0.00 | 0.00 | 0.00 | 39 | 1015.7 |
| 20260901171931 | 98 | 318 | 1.0 | 7.0 | 0.00 | 0.00 | 0.00 | 40 | 1015.7 |
| 20260901171206 | 98 | 64 | 1.0 | 7.0 | 0.00 | 0.00 | 0.00 | 40 | 1015.8 |
| 20260901170701 | 97 | 131 | 2.0 | 7.0 | 0.00 | 0.00 | 0.00 | 39 | 1015.8 |
| 20260901170200 | 96 | 92 | 3.0 | 7.0 | 0.00 | 0.00 | 0.00 | 40 | 1015.8 |
| 20260901165631 | 96 | 134 | 2.0 | 8.0 | 0.00 | 0.00 | 0.00 | 43 | 1015.8 |
| 20260901165349 | 96 | 219 | 1.0 | 8.0 | 0.00 | 0.00 | 0.00 | 42 | 1015.9 |
| 20260901164605 | 96 | 153 | 2.0 | 8.0 | 0.00 | 0.00 | 0.00 | 42 | 1015.9 |
| 20260901164037 | 96 | 240 | 1.0 | 7.0 | 0.00 | 0.00 | 0.00 | 40 | 1015.9 |
| 20260901163512 | 96 | 208 | 1.0 | 4.0 | 0.00 | 0.00 | 0.00 | 44 | 1016.0 |
| 20260901162943 | 96 | 116 | 0.0 | 4.0 | 0.00 | 0.00 | 0.00 | 45 | 1016.0 |
| 20260901162441 | 96 | 153 | 1.0 | 6.0 | 0.00 | 0.00 | 0.00 | 46 | 1016.1 |
| 20260901161916 | 95 | 4 | 1.0 | 6.0 | 0.00 | 0.00 | 0.00 | 45 | 1016.0 |
| 20260901161350 | 95 | 167 | 2.0 | 6.0 | 0.00 | 0.00 | 0.00 | 46 | 1016.1 |
| 20260901160822 | 94 | 224 | 2.0 | 6.0 | 0.00 | 0.00 | 0.00 | 46 | 1016.1 |
| 20260901160317 | 94 | 162 | 1.0 | 5.0 | 0.00 | 0.00 | 0.00 | 46 | 1016.0 |
| 20260901155811 | 94 | 234 | 1.0 | 5.0 | 0.00 | 0.00 | 0.00 | 48 | 1016.0 |
| 20260901155309 | 94 | 127 | 1.0 | 4.0 | 0.00 | 0.00 | 0.00 | 47 | 1016.0 |
| 20260901154741 | 94 | 120 | 1.0 | 4.0 | 0.00 | 0.00 | 0.00 | 46 | 1016.0 |
| 20260901154239 | 94 | 155 | 0.0 | 4.0 | 0.00 | 0.00 | 0.00 | 46 | 1016.0 |
| 20260901153711 | 93 | 122 | 1.0 | 5.0 | 0.00 | 0.00 | 0.00 | 49 | 1015.9 |
| 20260901153208 | 92 | 223 | 1.0 | 5.0 | 0.00 | 0.00 | 0.00 | 50 | 1015.9 |
| 20260901152707 | 92 | 10 | 1.0 | 5.0 | 0.00 | 0.00 | 0.00 | 51 | 1015.9 |
| 20260901152139 | 92 | 147 | 1.0 | 5.0 | 0.00 | 0.00 | 0.00 | 50 | 1015.9 |
| 20260901151638 | 92 | 255 | 1.0 | 5.0 | 0.00 | 0.00 | 0.00 | 51 | 1015.9 |
| 20260901151129 | 91 | 253 | 1.0 | 7.0 | 0.00 | 0.00 | 0.00 | 52 | 1015.9 |
| 20260901150626 | 91 | 240 | 1.0 | 6.0 | 0.00 | 0.00 | 0.00 | 52 | 1016.0 |
| 20260901150100 | 91 | 260 | 0.0 | 4.0 | 0.00 | 0.00 | 0.00 | 54 | 1016.1 |
| 20260901145557 | 90 | 134 | 1.0 | 5.0 | 0.00 | 0.00 | 0.00 | 54 | 1016.1 |
| 20260901145056 | 89 | 103 | 1.0 | 5.0 | 0.00 | 0.00 | 0.00 | 54 | 1016.1 |
| 20260901144551 | 90 | 203 | 1.0 | 4.0 | 0.00 | 0.00 | 0.00 | 54 | 1016.2 |
| 20260901144050 | 89 | 159 | 0.0 | 3.0 | 0.00 | 0.00 | 0.00 | 55 | 1016.2 |
| 20260901143521 | 89 | 219 | 0.0 | 3.0 | 0.00 | 0.00 | 0.00 | 55 | 1016.2 |
| 20260901143022 | 89 | 131 | 0.0 | 4.0 | 0.00 | 0.00 | 0.00 | 56 | 1016.3 |
| 20260901142451 | 88 | 229 | 1.0 | 4.0 | 0.00 | 0.00 | 0.00 | 58 | 1016.2 |
| 20260901141950 | 87 | 153 | 1.0 | 3.0 | 0.00 | 0.00 | 0.00 | 59 | 1016.1 |
| 20260901141445 | 87 | 159 | 1.0 | 4.0 | 0.00 | 0.00 | 0.00 | 59 | 1016.1 |
| 20260901140942 | 87 | 133 | 0.0 | 4.0 | 0.00 | 0.00 | 0.00 | 59 | 1016.1 |
| 20260901140419 | 86 | 164 | 1.0 | 4.0 | 0.00 | 0.00 | 0.00 | 61 | 1016.2 |
| 20260901135914 | 85 | 233 | 1.0 | 4.0 | 0.00 | 0.00 | 0.00 | 61 | 1016.2 |
| 20260901135411 | 85 | 130 | 1.0 | 4.0 | 0.00 | 0.00 | 0.00 | 62 | 1016.2 |
| 20260901134843 | 85 | 223 | 1.0 | 4.0 | 0.00 | 0.00 | 0.00 | 62 | 1016.3 |
| 20260901134342 | 84 | 130 | 1.0 | 3.0 | 0.00 | 0.00 | 0.00 | 63 | 1016.3 |
| 20260901133812 | 84 | 167 | 1.0 | 3.0 | 0.00 | 0.00 | 0.00 | 64 | 1016.2 |
| 20260901133313 | 83 | 130 | 1.0 | 4.0 | 0.00 | 0.00 | 0.00 | 64 | 1016.2 |
| 20260901132743 | 83 | 191 | 1.0 | 3.0 | 0.00 | 0.00 | 0.00 | 66 | 1016.2 |
| 20260901132432 | 82 | 217 | 1.0 | 3.0 | 0.00 | 0.00 | 0.00 | 66 | 1016.2 |
| 20260901132128 | 82 | 131 | 0.0 | 5.0 | 0.00 | 0.00 | 0.00 | 66 | 1016.2 |
| 20260901131116 | 82 | 130 | 0.0 | 3.0 | 0.00 | 0.00 | 0.00 | 67 | 1016.1 |
| 20260901130546 | 81 | 101 | 0.0 | 3.0 | 0.00 | 0.00 | 0.00 | 68 | 1016.1 |
| 20260901130045 | 81 | 162 | 0.0 | 3.0 | 0.00 | 0.00 | 0.00 | 68 | 1016.0 |
| 20260901130029 | 81 | 157 | 0.0 | 4.0 | 0.00 | 0.00 | 0.00 | 69 | 1015.9 |
| 20260901125044 | 80 | 178 | 1.0 | 4.0 | 0.00 | 0.00 | 0.00 | 69 | 1015.9 |
| 20260901124541 | 80 | 112 | 0.0 | 2.0 | 0.00 | 0.00 | 0.00 | 69 | 1015.8 |
| 20260901124013 | 80 | 116 | 0.0 | 2.0 | 0.00 | 0.00 | 0.00 | 70 | 1015.8 |
| 20260901123515 | 80 | 115 | 0.0 | 2.0 | 0.00 | 0.00 | 0.00 | 70 | 1015.7 |
| 20260901122948 | 79 | 137 | 0.0 | 1.0 | 0.00 | 0.00 | 0.00 | 70 | 1015.6 |
| 20260901122423 | 79 | 141 | 0.0 | 2.0 | 0.00 | 0.00 | 0.00 | 71 | 1015.5 |
| 20260901121921 | 79 | 127 | 0.0 | 2.0 | 0.00 | 0.00 | 0.00 | 71 | 1015.4 |
| 20260901121420 | 78 | 129 | 0.0 | 1.0 | 0.00 | 0.00 | 0.00 | 71 | 1015.4 |
| 20260901120916 | 78 | 129 | 0.0 | 1.0 | 0.00 | 0.00 | 0.00 | 71 | 1015.3 |
| 20260901120417 | 78 | 130 | 0.0 | 0.0 | 0.00 | 0.00 | 0.00 | 70 | 1015.2 |
| 20260901115853 | 79 | 130 | 0.0 | 0.0 | 0.00 | 0.00 | 0.00 | 69 | 1015.2 |
| 20260901115327 | 79 | 130 | 0.0 | 0.0 | 0.00 | 0.00 | 0.00 | 69 | 1015.0 |
| 20260901114828 | 79 | 130 | 0.0 | 0.0 | 0.00 | 0.00 | 0.00 | 68 | 1015.0 |
| 20260901114307 | 79 | 129 | 0.0 | 1.0 | 0.00 | 0.00 | 0.00 | 68 | 1015.0 |
| 20260901113805 | 80 | 129 | 0.0 | 2.0 | 0.00 | 0.00 | 0.00 | 67 | 1015.0 |
| 20260901113302 | 80 | 159 | 0.0 | 2.0 | 0.00 | 0.00 | 0.00 | 67 | 1015.0 |
| 20260901112803 | 80 | 111 | 0.0 | 1.0 | 0.00 | 0.00 | 0.00 | 67 | 1014.9 |
| 20260901112518 | 80 | 111 | 0.0 | 1.0 | 0.00 | 0.00 | 0.00 | 67 | 1014.9 |
| 20260901111749 | 80 | 276 | 0.0 | 0.0 | 0.00 | 0.00 | 0.00 | 67 | 1014.8 |
| 20260901111220 | 80 | 276 | 0.0 | 0.0 | 0.00 | 0.00 | 0.00 | 66 | 1014.8 |
| 20260901110703 | 80 | 139 | 0.0 | 2.0 | 0.00 | 0.00 | 0.00 | 65 | 1014.8 |
| 20260901110139 | 80 | 158 | 0.0 | 2.0 | 0.00 | 0.00 | 0.00 | 65 | 1014.8 |
| 20260901105638 | 80 | 167 | 0.0 | 1.0 | 0.00 | 0.00 | 0.00 | 65 | 1014.8 |
| 20260901105138 | 81 | 132 | 0.0 | 1.0 | 0.00 | 0.00 | 0.00 | 64 | 1014.7 |
| 20260901104617 | 81 | 165 | 0.0 | 2.0 | 0.00 | 0.00 | 0.00 | 64 | 1014.7 |
| 20260901104046 | 81 | 165 | 0.0 | 4.0 | 0.00 | 0.00 | 0.00 | 63 | 1014.7 |
| 20260901103546 | 81 | 183 | 1.0 | 4.0 | 0.00 | 0.00 | 0.00 | 63 | 1014.8 |
| 20260901103021 | 82 | 293 | 1.0 | 5.0 | 0.00 | 0.00 | 0.00 | 62 | 1014.8 |
| 20260901102457 | 82 | 196 | 1.0 | 4.0 | 0.00 | 0.00 | 0.00 | 62 | 1014.8 |
| 20260901101931 | 82 | 239 | 0.0 | 4.0 | 0.00 | 0.00 | 0.00 | 62 | 1014.8 |
| 20260901101405 | 82 | 158 | 0.0 | 3.0 | 0.00 | 0.00 | 0.00 | 62 | 1014.8 |
| 20260901100905 | 82 | 225 | 1.0 | 6.0 | 0.00 | 0.00 | 0.00 | 62 | 1014.8 |
| 20260901100338 | 82 | 117 | 1.0 | 7.0 | 0.00 | 0.00 | 0.00 | 62 | 1014.8 |
| 20260901100055 | 82 | 127 | 1.0 | 7.0 | 0.00 | 0.00 | 0.00 | 62 | 1014.8 |
| 20260901095317 | 82 | 158 | 0.0 | 3.0 | 0.00 | 0.00 | 0.00 | 62 | 1014.9 |
| 20260901094758 | 83 | 156 | 1.0 | 3.0 | 0.00 | 0.00 | 0.00 | 62 | 1014.9 |
| 20260901094250 | 83 | 162 | 1.0 | 6.0 | 0.00 | 0.00 | 0.00 | 61 | 1014.9 |
| 20260901093748 | 83 | 229 | 1.0 | 6.0 | 0.00 | 0.00 | 0.00 | 61 | 1014.9 |
| 20260901093223 | 83 | 206 | 0.0 | 4.0 | 0.00 | 0.00 | 0.00 | 61 | 1015.0 |
| 20260901092945 | 83 | 236 | 1.0 | 4.0 | 0.00 | 0.00 | 0.00 | 61 | 1014.9 |
| 20260901092216 | 83 | 286 | 1.0 | 4.0 | 0.00 | 0.00 | 0.00 | 61 | 1014.9 |
| 20260901091911 | 83 | 146 | 1.0 | 4.0 | 0.00 | 0.00 | 0.00 | 60 | 1015.0 |
| 20260901091133 | 83 | 130 | 1.0 | 4.0 | 0.00 | 0.00 | 0.00 | 60 | 1015.0 |
| 20260901090632 | 83 | 124 | 1.0 | 3.0 | 0.00 | 0.00 | 0.00 | 59 | 1014.9 |
| 20260901090132 | 83 | 111 | 0.0 | 3.0 | 0.00 | 0.00 | 0.00 | 58 | 1014.8 |
| 20260901085852 | 83 | 167 | 0.0 | 3.0 | 0.00 | 0.00 | 0.00 | 58 | 1014.7 |
| 20260901085107 | 83 | 111 | 0.0 | 3.0 | 0.00 | 0.00 | 0.00 | 57 | 1014.7 |
| 20260901084606 | 84 | 153 | 1.0 | 3.0 | 0.00 | 0.00 | 0.00 | 56 | 1014.7 |
| 20260901084326 | 84 | 121 | 1.0 | 3.0 | 0.00 | 0.00 | 0.00 | 56 | 1014.7 |
| 20260901083600 | 84 | 98 | 2.0 | 5.0 | 0.00 | 0.00 | 0.00 | 55 | 1014.6 |
| 20260901083033 | 84 | 174 | 2.0 | 7.0 | 0.00 | 0.00 | 0.00 | 55 | 1014.5 |
| 20260901082530 | 84 | 220 | 2.0 | 6.0 | 0.00 | 0.00 | 0.00 | 55 | 1014.5 |
| 20260901082028 | 85 | 245 | 2.0 | 5.0 | 0.00 | 0.00 | 0.00 | 55 | 1014.6 |
| 20260901081500 | 85 | 108 | 2.0 | 5.0 | 0.00 | 0.00 | 0.00 | 55 | 1014.7 |
| 20260901081220 | 85 | 146 | 1.0 | 7.0 | 0.00 | 0.00 | 0.00 | 55 | 1014.6 |
| 20260901080430 | 85 | 186 | 1.0 | 5.0 | 0.00 | 0.00 | 0.00 | 55 | 1014.5 |
| 20260901080129 | 85 | 233 | 1.0 | 4.0 | 0.00 | 0.00 | 0.00 | 56 | 1014.5 |
| 20260901075340 | 85 | 147 | 1.0 | 4.0 | 0.00 | 0.00 | 0.00 | 56 | 1014.5 |
| 20260901074836 | 85 | 247 | 1.0 | 4.0 | 0.00 | 0.00 | 0.00 | 56 | 1014.5 |
| 20260901074335 | 85 | 130 | 1.0 | 4.0 | 0.00 | 0.00 | 0.00 | 56 | 1014.5 |
| 20260901073818 | 85 | 150 | 1.0 | 4.0 | 0.00 | 0.00 | 0.00 | 55 | 1014.5 |
| 20260901073321 | 85 | 119 | 1.0 | 5.0 | 0.00 | 0.00 | 0.00 | 55 | 1014.5 |
| 20260901073012 | 85 | 138 | 1.0 | 7.0 | 0.00 | 0.00 | 0.00 | 54 | 1014.5 |
| 20260901072450 | 85 | 141 | 2.0 | 7.0 | 0.00 | 0.00 | 0.00 | 53 | 1014.5 |
| 20260901071701 | 85 | 124 | 2.0 | 5.0 | 0.00 | 0.00 | 0.00 | 53 | 1014.5 |
| 20260901071159 | 85 | 132 | 2.0 | 8.0 | 0.00 | 0.00 | 0.00 | 53 | 1014.4 |
| 20260901070630 | 85 | 172 | 2.0 | 6.0 | 0.00 | 0.00 | 0.00 | 53 | 1014.4 |
| 20260901070128 | 85 | 141 | 2.0 | 7.0 | 0.00 | 0.00 | 0.00 | 53 | 1014.5 |
| 20260901065600 | 86 | 152 | 2.0 | 7.0 | 0.00 | 0.00 | 0.00 | 52 | 1014.4 |
| 20260901065542 | 86 | 132 | 2.0 | 7.0 | 0.00 | 0.00 | 0.00 | 52 | 1014.5 |
| 20260901064530 | 86 | 146 | 2.0 | 7.0 | 0.00 | 0.00 | 0.00 | 52 | 1014.4 |
| 20260901064247 | 86 | 133 | 2.0 | 7.0 | 0.00 | 0.00 | 0.00 | 52 | 1014.3 |
| 20260901063524 | 86 | 146 | 1.0 | 7.0 | 0.00 | 0.00 | 0.00 | 52 | 1014.3 |
| 20260901062959 | 86 | 143 | 1.0 | 7.0 | 0.00 | 0.00 | 0.00 | 51 | 1014.3 |
| 20260901062434 | 86 | 122 | 1.0 | 3.0 | 0.00 | 0.00 | 0.00 | 51 | 1014.3 |
| 20260901061906 | 86 | 110 | 1.0 | 4.0 | 0.00 | 0.00 | 0.00 | 50 | 1014.3 |
| 20260901061403 | 86 | 136 | 1.0 | 4.0 | 0.00 | 0.00 | 0.00 | 50 | 1014.2 |
| 20260901060900 | 86 | 126 | 2.0 | 5.0 | 0.00 | 0.00 | 0.00 | 50 | 1014.2 |
| 20260901060357 | 86 | 125 | 2.0 | 6.0 | 0.00 | 0.00 | 0.00 | 49 | 1014.1 |
| 20260901055854 | 86 | 129 | 2.0 | 6.0 | 0.00 | 0.00 | 0.00 | 49 | 1014.0 |
| 20260901055350 | 86 | 103 | 2.0 | 6.0 | 0.00 | 0.00 | 0.00 | 49 | 1013.9 |
| 20260901055112 | 86 | 135 | 2.0 | 6.0 | 0.00 | 0.00 | 0.00 | 49 | 1013.9 |
| 20260901054347 | 87 | 165 | 2.0 | 5.0 | 0.00 | 0.00 | 0.00 | 49 | 1013.8 |
| 20260901053819 | 87 | 105 | 2.0 | 6.0 | 0.00 | 0.00 | 0.00 | 49 | 1013.9 |
| 20260901053312 | 87 | 117 | 2.0 | 6.0 | 0.00 | 0.00 | 0.00 | 49 | 1013.8 |
| 20260901052808 | 87 | 116 | 2.0 | 6.0 | 0.00 | 0.00 | 0.00 | 48 | 1013.7 |
| 20260901052308 | 87 | 117 | 2.0 | 6.0 | 0.00 | 0.00 | 0.00 | 47 | 1013.7 |
| 20260901051740 | 87 | 108 | 3.0 | 8.0 | 0.00 | 0.00 | 0.00 | 47 | 1013.7 |
| 20260901051239 | 87 | 108 | 3.0 | 8.0 | 0.00 | 0.00 | 0.00 | 46 | 1013.7 |
| 20260901050734 | 87 | 147 | 2.0 | 8.0 | 0.00 | 0.00 | 0.00 | 46 | 1013.7 |
| 20260901050453 | 87 | 129 | 2.0 | 6.0 | 0.00 | 0.00 | 0.00 | 47 | 1013.6 |
| 20260901045708 | 87 | 129 | 1.0 | 5.0 | 0.00 | 0.00 | 0.00 | 47 | 1013.6 |
| 20260901045207 | 86 | 119 | 1.0 | 4.0 | 0.00 | 0.00 | 0.00 | 47 | 1013.7 |
| 20260901044638 | 86 | 139 | 1.0 | 4.0 | 0.00 | 0.00 | 0.00 | 48 | 1013.5 |
| 20260901044134 | 85 | 124 | 0.0 | 4.0 | 0.00 | 0.00 | 0.00 | 49 | 1013.5 |
| 20260901043611 | 84 | 121 | 0.0 | 1.0 | 0.00 | 0.00 | 0.00 | 50 | 1013.5 |
| 20260901043310 | 84 | 121 | 0.0 | 1.0 | 0.00 | 0.00 | 0.00 | 52 | 1013.4 |
| 20260901042545 | 83 | 121 | 0.0 | 1.0 | 0.00 | 0.00 | 0.00 | 54 | 1013.5 |
| 20260901042022 | 82 | 121 | 0.0 | 0.0 | 0.00 | 0.00 | 0.00 | 56 | 1013.4 |
| 20260901041502 | 82 | 121 | 0.0 | 1.0 | 0.00 | 0.00 | 0.00 | 56 | 1013.5 |
| 20260901041000 | 82 | 121 | 0.0 | 1.0 | 0.00 | 0.00 | 0.00 | 57 | 1013.5 |
| 20260901040454 | 82 | 121 | 0.0 | 0.0 | 0.00 | 0.00 | 0.00 | 55 | 1013.3 |
| 20260901035955 | 83 | 121 | 0.0 | 0.0 | 0.00 | 0.00 | 0.00 | 54 | 1013.3 |
| 20260901035451 | 83 | 121 | 0.0 | 0.0 | 0.00 | 0.00 | 0.00 | 54 | 1013.4 |
| 20260901034950 | 84 | 121 | 0.0 | 0.0 | 0.00 | 0.00 | 0.00 | 52 | 1013.4 |
| 20260901034427 | 84 | 121 | 0.0 | 0.0 | 0.00 | 0.00 | 0.00 | 52 | 1013.4 |
| 20260901033926 | 85 | 121 | 0.0 | 0.0 | 0.00 | 0.00 | 0.00 | 51 | 1013.4 |
| 20260901033422 | 86 | 121 | 0.0 | 0.0 | 0.00 | 0.00 | 0.00 | 50 | 1013.3 |
| 20260901032901 | 86 | 121 | 0.0 | 0.0 | 0.00 | 0.00 | 0.00 | 49 | 1013.3 |
| 20260901032347 | 87 | 121 | 0.0 | 0.0 | 0.00 | 0.00 | 0.00 | 47 | 1013.3 |
| 20260901031846 | 88 | 121 | 0.0 | 0.0 | 0.00 | 0.00 | 0.00 | 47 | 1013.3 |
| 20260901031610 | 88 | 121 | 0.0 | 0.0 | 0.00 | 0.00 | 0.00 | 45 | 1013.3 |
| 20260901030828 | 89 | 121 | 0.0 | 0.0 | 0.00 | 0.00 | 0.00 | 43 | 1013.2 |
| 20260901030308 | 89 | 121 | 0.0 | 0.0 | 0.00 | 0.00 | 0.00 | 42 | 1013.1 |
| 20260901025742 | 89 | 121 | 0.0 | 0.0 | 0.00 | 0.00 | 0.00 | 42 | 1013.1 |
| 20260901025456 | 89 | 121 | 0.0 | 0.0 | 0.00 | 0.00 | 0.00 | 42 | 1013.0 |
| 20260901024705 | 89 | 121 | 0.0 | 0.0 | 0.00 | 0.00 | 0.00 | 42 | 1012.9 |
| 20260901024142 | 90 | 121 | 0.0 | 0.0 | 0.00 | 0.00 | 0.00 | 42 | 1012.8 |
| 20260901023621 | 90 | 121 | 0.0 | 0.0 | 0.00 | 0.00 | 0.00 | 43 | 1012.8 |
| 20260901023119 | 90 | 121 | 0.0 | 0.0 | 0.00 | 0.00 | 0.00 | 43 | 1012.7 |
| 20260901022620 | 90 | 128 | 0.0 | 0.0 | 0.00 | 0.00 | 0.00 | 42 | 1012.7 |
| 20260901022054 | 90 | 128 | 0.0 | 1.0 | 0.00 | 0.00 | 0.00 | 41 | 1012.6 |
| 20260901021549 | 91 | 128 | 0.0 | 1.0 | 0.00 | 0.00 | 0.00 | 40 | 1012.6 |
| 20260901021030 | 91 | 128 | 0.0 | 1.0 | 0.00 | 0.00 | 0.00 | 40 | 1012.5 |
| 20260901020459 | 91 | 128 | 0.0 | 1.0 | 0.00 | 0.00 | 0.00 | 40 | 1012.5 |
| 20260901015934 | 91 | 122 | 0.0 | 0.0 | 0.00 | 0.00 | 0.00 | 40 | 1012.4 |
| 20260901015640 | 92 | 122 | 0.0 | 2.0 | 0.00 | 0.00 | 0.00 | 39 | 1012.4 |
| 20260901014847 | 92 | 139 | 0.0 | 2.0 | 0.00 | 0.00 | 0.00 | 38 | 1012.4 |
| 20260901014329 | 92 | 121 | 0.0 | 1.0 | 0.00 | 0.00 | 0.00 | 38 | 1012.4 |
| 20260901013803 | 92 | 123 | 0.0 | 1.0 | 0.00 | 0.00 | 0.00 | 37 | 1012.4 |
| 20260901013708 | 93 | 113 | 0.0 | 1.0 | 0.00 | 0.00 | 0.00 | 36 | 1012.4 |
| 20260901013327 | 93 | 113 | 0.0 | 1.0 | 0.00 | 0.00 | 0.00 | 37 | 1012.3 |
| 20260901012231 | 93 | 134 | 0.0 | 1.0 | 0.00 | 0.00 | 0.00 | 36 | 1012.2 |
| 20260901011727 | 94 | 134 | 0.0 | 2.0 | 0.00 | 0.00 | 0.00 | 35 | 1012.3 |
| 20260901011158 | 94 | 127 | 0.0 | 3.0 | 0.00 | 0.00 | 0.00 | 34 | 1012.2 |
| 20260901010658 | 94 | 148 | 1.0 | 2.0 | 0.00 | 0.00 | 0.00 | 33 | 1012.2 |
| 20260901010153 | 95 | 132 | 1.0 | 4.0 | 0.00 | 0.00 | 0.00 | 32 | 1012.1 |
| 20260901005653 | 95 | 140 | 0.0 | 3.0 | 0.00 | 0.00 | 0.00 | 32 | 1012.1 |
| 20260901005127 | 96 | 139 | 1.0 | 4.0 | 0.00 | 0.00 | 0.00 | 31 | 1012.1 |
| 20260901004846 | 96 | 131 | 1.0 | 3.0 | 0.00 | 0.00 | 0.00 | 31 | 1012.0 |
| 20260901004033 | 96 | 121 | 2.0 | 6.0 | 0.00 | 0.00 | 0.00 | 30 | 1012.1 |
| 20260901003534 | 97 | 120 | 2.0 | 6.0 | 0.00 | 0.00 | 0.00 | 29 | 1012.0 |
| 20260901003005 | 98 | 133 | 2.0 | 8.0 | 0.00 | 0.00 | 0.00 | 28 | 1012.0 |
| 20260901002501 | 98 | 132 | 3.0 | 8.0 | 0.00 | 0.00 | 0.00 | 28 | 1012.0 |
| 20260901001955 | 98 | 110 | 3.0 | 8.0 | 0.00 | 0.00 | 0.00 | 28 | 1012.0 |
| 20260901001720 | 99 | 101 | 2.0 | 6.0 | 0.00 | 0.00 | 0.00 | 28 | 1012.0 |
| 20260901001416 | 99 | 167 | 2.0 | 6.0 | 0.00 | 0.00 | 0.00 | 27 | 1012.1 |
| 20260901000359 | 99 | 130 | 1.0 | 5.0 | 0.00 | 0.00 | 0.00 | 27 | 1012.0 |
| 20260831235856 | 99 | 120 | 2.0 | 5.0 | 0.00 | 0.00 | 0.00 | 26 | 1012.0 |
| 20260831235340 | 100 | 101 | 3.0 | 8.0 | 0.00 | 0.00 | 0.00 | 26 | 1012.1 |
| 20260831234946 | 100 | 121 | 2.0 | 7.0 | 0.00 | 0.00 | 0.00 | 26 | 1012.1 |
| 20260831234218 | 100 | 113 | 1.0 | 6.0 | 0.00 | 0.00 | 0.00 | 26 | 1012.1 |
| 20260831233713 | 100 | 112 | 1.0 | 5.0 | 0.00 | 0.00 | 0.00 | 27 | 1012.1 |
| 20260831233146 | 100 | 155 | 2.0 | 6.0 | 0.00 | 0.00 | 0.00 | 26 | 1012.0 |
| 20260831232622 | 100 | 151 | 2.0 | 7.0 | 0.00 | 0.00 | 0.00 | 26 | 1012.0 |
| 20260831232053 | 100 | 127 | 2.0 | 7.0 | 0.00 | 0.00 | 0.00 | 25 | 1012.0 |
| 20260831231527 | 100 | 158 | 2.0 | 9.0 | 0.00 | 0.00 | 0.00 | 26 | 1011.9 |
| 20260831231223 | 100 | 135 | 2.0 | 6.0 | 0.00 | 0.00 | 0.00 | 25 | 1012.0 |
| 20260831230435 | 100 | 218 | 3.0 | 7.0 | 0.00 | 0.00 | 0.00 | 25 | 1012.0 |
| 20260831225907 | 101 | 141 | 3.0 | 8.0 | 0.00 | 0.00 | 0.00 | 24 | 1012.1 |
| 20260831225403 | 101 | 134 | 3.0 | 8.0 | 0.00 | 0.00 | 0.00 | 24 | 1012.1 |
| 20260831224838 | 101 | 176 | 3.0 | 9.0 | 0.00 | 0.00 | 0.00 | 24 | 1012.2 |
| 20260831224309 | 101 | 233 | 2.0 | 9.0 | 0.00 | 0.00 | 0.00 | 24 | 1012.2 |
| 20260831223807 | 101 | 158 | 2.0 | 6.0 | 0.00 | 0.00 | 0.00 | 24 | 1012.2 |
| 20260831223303 | 101 | 107 | 3.0 | 6.0 | 0.00 | 0.00 | 0.00 | 24 | 1012.3 |
| 20260831222802 | 101 | 232 | 3.0 | 7.0 | 0.00 | 0.00 | 0.00 | 24 | 1012.3 |
| 20260831222232 | 101 | 136 | 2.0 | 7.0 | 0.00 | 0.00 | 0.00 | 25 | 1012.3 |
| 20260831221953 | 101 | 113 | 2.0 | 6.0 | 0.00 | 0.00 | 0.00 | 25 | 1012.4 |
| 20260831221223 | 101 | 115 | 3.0 | 8.0 | 0.00 | 0.00 | 0.00 | 24 | 1012.4 |
| 20260831220722 | 101 | 117 | 3.0 | 9.0 | 0.00 | 0.00 | 0.00 | 24 | 1012.4 |
| 20260831220154 | 101 | 152 | 3.0 | 8.0 | 0.00 | 0.00 | 0.00 | 24 | 1012.5 |
| 20260831215651 | 102 | 222 | 3.0 | 7.0 | 0.00 | 0.00 | 0.00 | 24 | 1012.5 |
| 20260831215120 | 101 | 119 | 3.0 | 7.0 | 0.00 | 0.00 | 0.00 | 24 | 1012.5 |
| 20260831214556 | 101 | 94 | 4.0 | 9.0 | 0.00 | 0.00 | 0.00 | 25 | 1012.6 |
| 20260831214029 | 101 | 215 | 3.0 | 9.0 | 0.00 | 0.00 | 0.00 | 24 | 1012.6 |
| 20260831213501 | 101 | 159 | 3.0 | 8.0 | 0.00 | 0.00 | 0.00 | 24 | 1012.7 |
| 20260831212959 | 101 | 161 | 2.0 | 6.0 | 0.00 | 0.00 | 0.00 | 25 | 1012.7 |
| 20260831212654 | 101 | 129 | 3.0 | 10.0 | 0.00 | 0.00 | 0.00 | 26 | 1012.8 |
| 20260831211905 | 101 | 126 | 3.0 | 10.0 | 0.00 | 0.00 | 0.00 | 26 | 1012.8 |
| 20260831211404 | 101 | 208 | 4.0 | 10.0 | 0.00 | 0.00 | 0.00 | 24 | 1012.9 |
| 20260831210855 | 101 | 146 | 3.0 | 10.0 | 0.00 | 0.00 | 0.00 | 25 | 1013.0 |